MIRATA

Last updated on Sat Aug 30 2025 00:03:48 GMT+0000 (Coordinated Universal Time)

1 43015U 17073C 25241.26720751 .00151706 00000+0 15675-2 0 9990 2 43015 97.5221 140.3246 0062761 146.0203 214.5100 15.61780562423349
UTC large
Height (km)
Speed (km/s)
/
Latitude / Longitude
Inclination (degrees)
Orbital Period (minutes)
Azimuth
Elevation
Range (km)
Doppler Factor

Next 0 passes for location: London (51.5072 / 0.1276)

Sorry there are no passes over London.